User: anonymous   Login
Location: Unspecified
(0.0000°N, 0.0000°E)
Time: 08:46:30
(UTC+00:00)
Language:

Freja - Orbit

View from above orbital plane
View from above orbital plane
View from above satellite
View from above satellite

Ground track
Ground track

The orbit data is extracted from the following two-line orbital elements,

1 22161U 92064A   24114.20915733  .00000658  00000-0  25982-3 0  9993
2 22161  62.9815 104.7391 0792378 170.6489 191.0335 13.31805583529387
Epoch (UTC): 23 April 2024 05:01:11
Eccentricity: 0.0792378
inclination: 62.9815°
perigee height: 544 km
apogee height: 1735 km
right ascension of ascending node: 104.7391°
argument of perigee: 170.6489°
revolutions per day: 13.31805583
mean anomaly at epoch: 191.0335°
orbit number at epoch: 52938

The dashed part of the orbit path shows where the satellite is in the earth's shadow,  

DLR